Location: Le Petit-Vavre
(46.5081°N, 1.5239°E)
Time: 06:17:18
(UTC+00:00)

Cosmos 2333 Rocket - Pass Details

Date: 03 March 2021
Orbit: 837 x 864 km, 70.8° (Epoch: 18 April)

Event Time Altitude Azimuth Distance (km) Brightness Sun altitude
Rises 20:30:06 0° 219° (SW) 3,390 5.5 -29.0°
Reaches altitude 10° 20:32:35 10° 224° (SW) 2,462 4.8 -29.4°
Maximum altitude 20:38:07 55° 302° (WNW) 1,020 2.8 -30.3°
Drops below altitude 10° 20:43:45 10° 20° (NNE) 2,495 4.7 -31.1°
Sets 20:46:17 0° 25° (NNE) 3,439 5.4 -31.5°
